Home > Weather > Stanley > Past weeks

Flag for Falkland Islands Weather for the Past 2 Weeks in Stanley, Falkland Islands

Now
52 °F

Drizzle. Mostly cloudy.


Feels Like: 47 °F
Forecast: 48 / 52 °F
Wind: 13 mph from West

Location: Mount Pleasant Airport

Current Time: Feb 9, 2016 at 12:29:13 AM

Latest Report: Feb 8, 2016 at 11:50 PM


Visibility: N/A

Pressure: 29.30 "Hg

Humidity: 94%

Dew point: 50 °F

Location of StanleyLocation

Historic Weather in Stanley — Graph

°F

Stanley Temperature Yesterday

Maximum temperature yesterday: 63 °F (at 2:50 PM)
Minimum temperature yesterday: 48 °F (at 1:50 AM)
Average temperature yesterday: 54 °F

High & Low Weather Summary for the Past Weeks

 TemperatureHumidityPressure
High70 °F (Feb 6, 12:50 PM)100% (Jan 27, 9:50 PM)30.18 "Hg (Jan 27, 9:50 PM)
Low39 °F (Jan 25, 10:50 PM)32% (Jan 31, 10:50 AM)29.24 "Hg (Jan 24, 10:50 PM)
Average53 °F74%29.80 "Hg
* Reported Jan 24 10:50 PM — Feb 8 10:50 PM, Stanley, Weather by CustomWeather, © 2016

Note: Actual official high and low records may vary slightly from our data, if they occured in-between our weather recording intervals... More about our weather records

Advertising

Stanley Weather History for the Previous 24 Hours

 ConditionsComfort  
Time TempWeatherWind HumidityBarometerVisibility
10:50 PM
Mon, Feb 8
52 °FDrizzle. Mostly cloudy.14 mph100%29.33 "HgN/A
9:50 PM54 °FLight rain. Low clouds.10 mph94%29.30 "HgN/A
8:50 PM54 °FLight rain. Passing clouds.10 mph94%29.30 "HgN/A
7:50 PM54 °FLight rain. More clouds than sun.9 mph94%29.30 "HgN/A
6:50 PM55 °FMostly cloudy.13 mph88%29.30 "HgN/A
5:50 PM57 °FLight rain. More clouds than sun.14 mph88%29.33 "HgN/A
4:50 PM55 °FLight rain. More clouds than sun.6 mph94%29.33 "HgN/A
3:50 PM59 °FLight rain. Cloudy.15 mph72%29.33 "HgN/A
2:50 PM63 °FPartly sunny.16 mph59%29.36 "HgN/A
1:50 PM61 °FScattered showers. Partly sunny.20 mph63%29.36 "HgN/A
12:50 PM61 °FScattered clouds.21 mph68%29.39 "HgN/A
11:50 AM61 °FBroken clouds.20 mph68%29.39 "HgN/A
10:50 AM59 °FScattered clouds.20 mph72%29.39 "HgN/A
9:50 AM55 °FScattered clouds.17 mph77%29.45 "HgN/A
8:50 AM52 °FPartly sunny.12 mph88%29.47 "HgN/A
7:50 AM50 °FPartly sunny.14 mph88%29.50 "HgN/A
6:50 AM48 °FScattered clouds.18 mph87%29.53 "HgN/A
5:50 AM48 °FBroken clouds.14 mph87%29.53 "HgN/A
4:50 AM48 °FPartly cloudy.16 mph87%29.53 "HgN/A
3:50 AM50 °FPassing clouds.22 mph88%29.53 "HgN/A
2:50 AM50 °FPassing clouds.16 mph88%29.59 "HgN/A
1:50 AM48 °FPartly cloudy.3 mph87%29.62 "HgN/A
12:50 AM50 °FPassing clouds.16 mph88%29.65 "HgN/A
Weather by CustomWeather, © 2016

See weather overviewHow to use our weather pages